Location: Unspecified
(0.0000°N, 0.0000°E)
Time: 07:41:15
(UTC+00:00)

Vanguard 2 - Pass Details

Date: 20 December 2018
Orbit: 553 x 2939 km, 32.9° (Epoch: 18 June)

Event Time Altitude Azimuth Distance (km) Brightness Sun altitude
Rises 03:18:08 0° 291° (WNW) 5,149 - -36.0°
Reaches altitude 10° 03:21:10 10° 287° (WNW) 4,433 - -35.3°
Exits shadow 03:29:30 45° 258° (WSW) 3,070 10.1 -33.5°
Maximum altitude 03:34:04 56° 212° (SSW) 2,979 10.3 -32.5°
Drops below altitude 10° 03:51:28 10° 138° (SE) 5,769 12.8 -28.6°
Sets 03:56:07 0° 133° (SE) 6,734 13.5 -27.6°
